Ames, IA

4:01 PM CST on January 23, 2018 (GMT -0600)
Ames Municipal

Weather History for KAMW - April, 2013

Change the Weather History Date:

Friday, April 26, 2013

  Actual Average Record
Temperature  
Mean Temperature 55 °F 53 °F  
Max Temperature 67 °F 65 °F 86 °F (2001)
Min Temperature 43 °F 42 °F 30 °F (2006)
Degree Days  
Heating Degree Days 10 12  
Month to date heating degree days 575 424  
Since 1 July heating degree days 6678 6580  
Cooling Degree Days 0 0  
Month to date cooling degree days 0 0  
Year to date cooling degree days 0 0  
Growing Degree Days 6 (Base 50)    
Moisture  
Dew Point 43 °F    
Average Humidity 67    
Maximum Humidity 86    
Minimum Humidity 48    
Precipitation  
Precipitation 0.00 in 0.13 in 0.67 in (1979)
Month to date precipitation 6.27 2.81  
Sea Level Pressure  
Sea Level Pressure 30.13 in    
Wind  
Wind Speed 13 mph (South)    
Max Wind Speed 29 mph    
Max Gust Speed 37 mph    
Visibility 10 miles    
Events      
T = Trace of Precipitation, MM = Missing Value Source: NWS Daily Summary

Daily Weather History Graph

Daily Weather History Graph

Search for Another Location

Airport or City:

Trip Planner

Search our weather history database for the weather conditions in past years. The results will help you decide how hot, cold, wet, or windy it might be!

Date:

Astronomy

Apr. 26, 2013 Rise Set
Actual Time 6:17 AM CDT 8:08 PM CDT
Civil Twilight 5:47 AM CDT 8:38 PM CDT
Nautical Twilight 5:10 AM CDT 9:14 PM CDT
Astronomical Twilight 4:31 AM CDT 9:54 PM CDT
Moon 9:32 PM CDT (4/26) 6:44 AM CDT (4/26)
Length of Visible Light 14h 51m
Length of Day
13h 51m
Full, 99% of the Moon is Illuminated
Apr 26
Full
May 2
Last Quarter
May 9
New
May 17
First Quarter
May 24
Full

Hourly Weather History & Observations

Time (CDT) Temp. Windchill Dew Point Humidity Pressure Visibility Wind Dir Wind Speed Gust Speed Precip Events Conditions
12:53 AM 46.9 °F - 36.0 °F 66% 30.14 in 10.0 mi SSE 12.7 mph - N/A   Clear
1:53 AM 48.0 °F - 36.0 °F 63% 30.13 in 10.0 mi South 12.7 mph - N/A   Clear
2:53 AM 48.0 °F - 37.0 °F 66% 30.12 in 10.0 mi South 10.4 mph - N/A   Clear
3:53 AM 48.9 °F - 37.9 °F 66% 30.10 in 10.0 mi SSE 10.4 mph - N/A   Clear
4:53 AM 48.9 °F - 39.0 °F 69% 30.09 in 10.0 mi SSE 11.5 mph - N/A   Clear
5:53 AM 46.9 °F - 39.0 °F 74% 30.09 in 10.0 mi SSE 9.2 mph - N/A   Clear
6:53 AM 46.0 °F 41.9 °F 37.9 °F 73% 30.09 in 10.0 mi SSE 8.1 mph - N/A   Clear
7:53 AM 48.9 °F - 39.9 °F 71% 30.11 in 10.0 mi SSE 6.9 mph - N/A   Clear
8:53 AM 57.0 °F - 41.0 °F 55% 30.11 in 10.0 mi SSW 16.1 mph 23.0 mph N/A   Clear
9:53 AM 61.0 °F - 42.1 °F 50% 30.10 in 10.0 mi SSW 19.6 mph 31.1 mph N/A   Clear
10:53 AM 64.0 °F - 44.1 °F 48% 30.11 in 10.0 mi SSW 25.3 mph 31.1 mph N/A   Clear
11:53 AM 64.9 °F - 46.0 °F 50% 30.13 in 10.0 mi SSW 23.0 mph 33.4 mph N/A   Partly Cloudy
12:53 PM 66.0 °F - 46.9 °F 50% 30.12 in 10.0 mi SSW 20.7 mph 34.5 mph N/A   Clear
1:53 PM 66.0 °F - 46.9 °F 50% 30.12 in 10.0 mi SSW 20.7 mph 28.8 mph N/A   Partly Cloudy
2:53 PM 66.9 °F - 46.9 °F 49% 30.12 in 10.0 mi SW 18.4 mph 24.2 mph N/A   Scattered Clouds
3:53 PM 64.9 °F - 46.9 °F 52% 30.12 in 10.0 mi SSW 13.8 mph 20.7 mph N/A   Mostly Cloudy
4:53 PM 64.9 °F - 46.9 °F 52% 30.12 in 10.0 mi SSW 16.1 mph 21.9 mph N/A   Mostly Cloudy
5:53 PM 64.9 °F - 48.9 °F 56% 30.13 in 10.0 mi South 15.0 mph - N/A   Mostly Cloudy
6:53 PM 62.1 °F - 48.0 °F 60% 30.14 in 10.0 mi SSW 17.3 mph 23.0 mph N/A   Clear
7:53 PM 59.0 °F - 48.0 °F 67% 30.15 in 10.0 mi South 12.7 mph - N/A   Clear
8:53 PM 55.0 °F - 46.9 °F 74% 30.16 in 10.0 mi South 9.2 mph - N/A   Clear
9:53 PM 53.1 °F - 46.9 °F 80% 30.19 in 10.0 mi South 8.1 mph - N/A   Clear
10:53 PM 51.1 °F - 46.0 °F 83% 30.19 in 10.0 mi South 6.9 mph - N/A   Clear
11:53 PM 48.9 °F - 45.0 °F 86% 30.20 in 10.0 mi South 4.6 mph - N/A   Clear